Weather History for Tappahannock, VA

Change the Weather History Date:

Thursday, January 23, 2014

  Actual Average (KRIC) Record (KRIC)
Temperature  
Mean Temperature 15 °F 38 °F  
Max Temperature 30 °F 48 °F 76 °F (1974)
Min Temperature 1 °F 28 °F 6 °F (1936)
Degree Days  
Heating Degree Days 50 27  
Month to date heating degree days 621  
Since 1 July heating degree days 2040  
Cooling Degree Days 0 0  
Month to date cooling degree days 0  
Year to date cooling degree days 0  
Moisture  
Dew Point -1 °F    
Average Humidity 49    
Maximum Humidity 80    
Minimum Humidity 27    
Precipitation  
Precipitation 0.00 in 0.09 in 2.51 in (1935)
Month to date precipitation 2.25  
Year to date precipitation 2.25  
Snow  
Snow 0.00 in 0.10 in 2.70 in (1908)
Month to date snowfall 2.7  
Since 1 July snowfall 5.0  
Snow Depth -    
Sea Level Pressure  
Sea Level Pressure 30.25 in    
Wind  
Wind Speed 3 mph (West)    
Max Wind Speed 14 mph    
Max Gust Speed 22 mph    
Visibility 10 miles    
Events      
T = Trace of Precipitation, MM = Missing Value Source: NWS Daily Summary

Daily Weather History Graph

Daily Weather History Graph

Search for Another Location

Airport:

Trip Planner

Search our weather history database for the weather conditions in past years. The results will help you decide how hot, cold, wet, or windy it might be!

Date:

Astronomy

Jan. 23, 2014 Rise Set
Actual Time 7:18 AM EST 5:21 PM EST
Civil Twilight 6:50 AM EST 5:49 PM EST
Nautical Twilight 6:18 AM EST 6:21 PM EST
Astronomical Twilight 5:46 AM EST 6:52 PM EST
Moon No Moon Rise 11:00 AM EST
Length of Visible Light 10h 59m
Length of Day
10h 02m
Waning Gibbous, 55% of the Moon is Illuminated
Jan 23
Waning Gibbous
Jan 24
Last Quarter
Jan 30
New
Feb 6
First Quarter
Feb 14
Full

Hourly Weather History & Observations

Time (EST) Temp. Windchill Dew Point Humidity Pressure Visibility Wind Dir Wind Speed Gust Speed Precip Events Conditions
12:15 AM 9.0 °F - -0.0 °F 67% 30.12 in 10.0 mi Calm Calm - N/A   Overcast
12:35 AM 8.8 °F - 1.0 °F 71% 30.12 in 10.0 mi Calm Calm - N/A   Overcast
12:55 AM 9.7 °F - 2.7 °F 73% 30.12 in 10.0 mi Calm Calm - N/A   Overcast
1:15 AM 9.9 °F - 1.6 °F 69% 30.12 in 10.0 mi Calm Calm - N/A   Overcast
1:35 AM 9.3 °F - 2.3 °F 73% 30.13 in 10.0 mi Calm Calm - N/A   Overcast
1:55 AM 10.2 °F - 2.3 °F 70% 30.13 in 10.0 mi Calm Calm - N/A   Overcast
2:15 AM 9.7 °F - 1.8 °F 70% 30.13 in 10.0 mi Calm Calm - N/A   Overcast
2:35 AM 8.6 °F - 1.0 °F 71% 30.14 in 10.0 mi Calm Calm - N/A   Mostly Cloudy
2:55 AM 8.8 °F - 1.8 °F 73% 30.15 in 10.0 mi Calm Calm - N/A   Overcast
3:15 AM 7.9 °F - 1.0 °F 74% 30.16 in 10.0 mi Calm Calm - N/A   Overcast
3:35 AM 8.2 °F - 0.3 °F 70% 30.16 in 10.0 mi Calm Calm - N/A   Overcast
3:55 AM 8.6 °F - 1.9 °F 74% 30.16 in 10.0 mi Calm Calm - N/A   Overcast
4:15 AM 8.6 °F - 1.6 °F 73% 30.16 in 10.0 mi Calm Calm - N/A   Overcast
4:35 AM 8.2 °F - 1.6 °F 74% 30.17 in 10.0 mi Calm Calm - N/A   Overcast
4:55 AM 8.1 °F - 0.7 °F 72% 30.17 in 10.0 mi Calm Calm - N/A   Mostly Cloudy
5:15 AM 6.8 °F - 0.9 °F 77% 30.17 in 10.0 mi Calm Calm - N/A   Scattered Clouds
5:35 AM 5.5 °F - 0.5 °F 80% 30.18 in 10.0 mi Calm Calm - N/A   Clear
5:55 AM 3.9 °F - -0.9 °F 80% 30.19 in 10.0 mi Calm Calm - N/A   Clear
6:15 AM 3.7 °F - -1.3 °F 80% 30.20 in 10.0 mi Calm Calm - N/A   Clear
6:35 AM 3.0 °F - -2.7 °F 77% 30.21 in 10.0 mi Calm Calm - N/A   Clear
6:55 AM 2.7 °F - -2.9 °F 78% 30.21 in 10.0 mi Calm Calm - N/A   Clear
7:15 AM 1.2 °F - -4.4 °F 77% 30.22 in 10.0 mi Calm Calm - N/A   Clear
7:35 AM 1.6 °F - -3.8 °F 78% 30.21 in 10.0 mi Calm Calm - N/A   Clear
7:55 AM 1.6 °F - -4.4 °F 76% 30.21 in 10.0 mi Calm Calm - N/A   Clear
8:15 AM 2.3 °F - -4.0 °F 75% 30.21 in 10.0 mi Calm Calm - N/A   Clear
8:35 AM 4.5 °F - -1.8 °F 75% 30.21 in 10.0 mi Calm Calm - N/A   Clear
8:55 AM 8.1 °F - 1.9 °F 76% 30.22 in 10.0 mi Calm Calm - N/A   Clear
9:15 AM 12.2 °F - 3.7 °F 69% 30.23 in 10.0 mi Calm Calm - N/A   Clear
9:35 AM 17.4 °F 10.4 °F 2.7 °F 52% 30.24 in 10.0 mi South 4.6 mph - N/A   Clear
9:55 AM 19.2 °F 12.5 °F 2.5 °F 48% 30.24 in 10.0 mi South 4.6 mph - N/A   Clear
10:15 AM 20.3 °F 12.5 °F 1.4 °F 44% 30.24 in 10.0 mi South 5.8 mph - N/A   Clear
10:35 AM 21.7 °F 14.3 °F 1.4 °F 41% 30.25 in 10.0 mi South 5.8 mph - N/A   Clear
10:55 AM 23.0 °F 15.8 °F 2.7 °F 42% 30.25 in 10.0 mi South 5.8 mph - N/A   Clear
11:15 AM 23.7 °F 16.6 °F 3.4 °F 42% 30.25 in 10.0 mi SW 5.8 mph - N/A   Clear
11:35 AM 24.4 °F 16.5 °F 2.8 °F 39% 30.25 in 10.0 mi SW 6.9 mph - N/A   Clear
11:55 AM 26.1 °F 19.4 °F 3.9 °F 39% 30.24 in 10.0 mi WSW 5.8 mph - N/A   Clear
12:15 PM 26.6 °F 19.1 °F 3.2 °F 37% 30.22 in 10.0 mi West 6.9 mph - N/A   Clear
12:35 PM 28.4 °F 19.1 °F 3.9 °F 35% 30.21 in 10.0 mi SW 10.4 mph - N/A   Clear
12:55 PM 28.2 °F 18.3 °F 3.7 °F 35% 30.21 in 10.0 mi WSW 11.5 mph - N/A   Clear
1:15 PM 29.3 °F 20.2 °F 2.7 °F 32% 30.21 in 10.0 mi SW 10.4 mph - N/A   Scattered Clouds
1:35 PM 29.3 °F 19.6 °F 0.7 °F 29% 30.21 in 10.0 mi WSW 11.5 mph 21.9 mph N/A   Scattered Clouds
1:55 PM 29.3 °F 19.1 °F -0.8 °F 28% 30.21 in 10.0 mi West 12.7 mph 19.6 mph N/A   Clear
2:15 PM 29.7 °F 19.1 °F 0.9 °F 29% 30.20 in 10.0 mi West 13.8 mph 19.6 mph N/A   Mostly Cloudy
2:35 PM 29.3 °F 20.8 °F 1.2 °F 30% 30.20 in 10.0 mi West 9.2 mph 16.1 mph N/A   Overcast
2:55 PM 29.3 °F 20.2 °F 0.7 °F 29% 30.21 in 10.0 mi WSW 10.4 mph 19.6 mph N/A   Overcast
3:15 PM 29.7 °F 22.0 °F 0.7 °F 29% 30.21 in 10.0 mi West 8.1 mph - N/A   Scattered Clouds
3:35 PM 29.8 °F 23.0 °F 0.5 °F 29% 30.23 in 10.0 mi West 6.9 mph - N/A   Scattered Clouds
3:55 PM 29.7 °F 20.1 °F -0.0 °F 28% 30.24 in 10.0 mi West 11.5 mph 18.4 mph N/A   Mostly Cloudy
4:15 PM 29.3 °F 25.6 °F 0.3 °F 29% 30.25 in 10.0 mi West 3.5 mph - N/A   Scattered Clouds
4:35 PM 28.8 °F 25.0 °F 1.6 °F 31% 30.26 in 10.0 mi West 3.5 mph - N/A   Mostly Cloudy
4:55 PM 29.3 °F 22.3 °F 0.9 °F 30% 30.26 in 10.0 mi West 6.9 mph - N/A   Overcast
5:15 PM 28.2 °F 23.1 °F 2.7 °F 34% 30.28 in 10.0 mi WNW 4.6 mph - N/A   Overcast
5:35 PM 27.5 °F 22.2 °F 5.4 °F 39% 30.29 in 10.0 mi NW 4.6 mph - N/A   Mostly Cloudy
5:55 PM 26.8 °F 18.5 °F 4.1 °F 38% 30.30 in 10.0 mi NW 8.1 mph - N/A   Mostly Cloudy
6:15 PM 26.1 °F 17.6 °F 3.2 °F 38% 30.32 in 10.0 mi NNW 8.1 mph - N/A   Mostly Cloudy
6:35 PM 24.8 °F 16.1 °F -2.2 °F 31% 30.33 in 10.0 mi NW 8.1 mph - N/A   Scattered Clouds
6:55 PM 23.9 °F 15.0 °F -2.2 °F 32% 30.35 in 10.0 mi NNW 8.1 mph - N/A   Clear
7:15 PM 22.8 °F 12.2 °F -1.8 °F 34% 30.37 in 10.0 mi NNW 10.4 mph 16.1 mph N/A   Clear
7:35 PM 21.7 °F 13.2 °F -2.4 °F 35% 30.38 in 10.0 mi NNW 6.9 mph - N/A   Clear
7:55 PM 20.8 °F 13.2 °F -2.2 °F 36% 30.39 in 10.0 mi NW 5.8 mph - N/A   Clear
8:15 PM 20.3 °F 12.5 °F -5.8 °F 32% 30.40 in 10.0 mi NW 5.8 mph - N/A   Clear
8:35 PM 20.1 °F 8.8 °F -8.7 °F 28% 30.41 in 10.0 mi WNW 10.4 mph 19.6 mph N/A   Clear
8:55 PM 19.8 °F 10.8 °F -9.6 °F 27% 30.42 in 10.0 mi WNW 6.9 mph - N/A   Clear
9:35 PM 18.9 °F 10.8 °F -10.1 °F 27% 30.43 in 10.0 mi WNW 5.8 mph - N/A   Clear
9:39 PM 19.4 °F 14.3 °F -9.4 °F 28% 30.43 in 10.0 mi WNW 3.5 mph - N/A   Clear
9:55 PM 18.5 °F 9.3 °F -10.5 °F 27% 30.43 in 10.0 mi NW 6.9 mph - N/A   Clear
10:15 PM 18.0 °F 9.8 °F -10.8 °F 27% 30.43 in 10.0 mi West 5.8 mph - N/A   Clear
10:55 PM 17.2 °F 6.8 °F -11.2 °F 28% 30.43 in 10.0 mi NW 8.1 mph - N/A   Clear
11:15 PM 16.7 °F 11.2 °F -10.8 °F 29% 30.44 in 10.0 mi WNW 3.5 mph - N/A   Clear
11:35 PM 16.5 °F 6.0 °F -10.7 °F 29% 30.44 in 10.0 mi WNW 8.1 mph - N/A   Clear
11:55 PM 16.2 °F 4.7 °F -10.5 °F 30% 30.44 in 10.0 mi WNW 9.2 mph 17.3 mph N/A   Clear